Time,TemperatureF,DewpointF,PressureIn,WindDirection,WindDirectionDegrees,WindSpeedMPH,WindSpeedGustMPH,Humidity,HourlyPrecipIn,Conditions,Clouds,dailyrainin,SolarRadiationWatts/m^2,SoftwareType,DateUTC
2013-02-16 00:07:00,47.9,45.0,30.24,ESE,102,0.0,0.0,88,0.00,,,0.00,0,weatherlink.com 1.10,2013-02-16 08:07:00,
2013-02-16 00:22:00,48.3,46.0,30.24,ESE,102,0.0,0.0,90,0.00,,,0.00,0,weatherlink.com 1.10,2013-02-16 08:22:00,
2013-02-16 00:37:00,49.3,47.0,30.24,SE,140,4.0,4.0,91,0.00,,,0.00,0,weatherlink.com 1.10,2013-02-16 08:37:00,
2013-02-16 00:52:00,48.4,46.0,30.25,SE,128,1.0,4.0,91,0.00,,,0.00,0,weatherlink.com 1.10,2013-02-16 08:52:00,
2013-02-16 01:08:00,47.7,45.0,30.25,SE,128,0.0,2.0,91,0.00,,,0.00,0,weatherlink.com 1.10,2013-02-16 09:08:00,
2013-02-16 01:23:00,47.6,45.0,30.25,SE,128,1.0,4.0,91,0.00,,,0.00,0,weatherlink.com 1.10,2013-02-16 09:23:00,
2013-02-16 01:38:00,46.9,45.0,30.24,NNE,21,0.0,4.0,91,0.00,,,0.00,0,weatherlink.com 1.10,2013-02-16 09:38:00,
2013-02-16 01:53:00,47.2,45.0,30.24,NE,47,2.0,6.0,91,0.00,,,0.00,0,weatherlink.com 1.10,2013-02-16 09:53:00,
2013-02-16 02:08:00,47.8,45.0,30.24,NNE,22,0.0,4.0,91,0.00,,,0.00,0,weatherlink.com 1.10,2013-02-16 10:08:00,
2013-02-16 02:23:00,47.7,45.0,30.23,WSW,257,0.0,4.0,91,0.00,,,0.00,0,weatherlink.com 1.10,2013-02-16 10:23:00,
2013-02-16 02:38:00,47.9,45.0,30.23,WNW,298,2.0,2.0,90,0.00,,,0.00,0,weatherlink.com 1.10,2013-02-16 10:38:00,
2013-02-16 02:53:00,49.4,46.0,30.23,NNE,18,0.0,4.0,88,0.00,,,0.00,0,weatherlink.com 1.10,2013-02-16 10:53:00,
2013-02-16 03:08:00,48.2,45.0,30.22,SE,140,0.0,4.0,88,0.00,,,0.00,0,weatherlink.com 1.10,2013-02-16 11:08:00,
2013-02-16 03:23:00,47.2,45.0,30.21,SE,138,1.0,2.0,91,0.00,,,0.00,0,weatherlink.com 1.10,2013-02-16 11:23:00,
2013-02-16 03:38:00,47.8,46.0,30.21,SE,129,1.0,6.0,92,0.00,,,0.00,0,weatherlink.com 1.10,2013-02-16 11:38:00,
2013-02-16 03:53:00,47.9,46.0,30.20,ESE,112,2.0,7.0,92,0.00,,,0.00,0,weatherlink.com 1.10,2013-02-16 11:53:00,
2013-02-16 04:08:00,47.5,45.0,30.20,SE,139,2.0,6.0,90,0.00,,,0.00,0,weatherlink.com 1.10,2013-02-16 12:08:00,
2013-02-16 04:23:00,46.9,45.0,30.20,SSE,162,1.0,5.0,91,0.00,,,0.00,0,weatherlink.com 1.10,2013-02-16 12:23:00,
2013-02-16 04:38:00,45.5,43.0,30.20,SSE,162,0.0,1.0,92,0.00,,,0.00,0,weatherlink.com 1.10,2013-02-16 12:38:00,
2013-02-16 04:53:00,44.9,43.0,30.20,SSE,162,0.0,1.0,92,0.00,,,0.00,0,weatherlink.com 1.10,2013-02-16 12:53:00,
2013-02-16 05:08:00,45.4,44.0,30.20,SSE,162,0.0,1.0,93,0.00,,,0.00,0,weatherlink.com 1.10,2013-02-16 13:08:00,
2013-02-16 05:23:00,46.7,45.0,30.20,SSE,165,0.0,4.0,93,0.00,,,0.00,0,weatherlink.com 1.10,2013-02-16 13:23:00,
2013-02-16 05:38:00,47.2,46.0,30.20,SSE,157,1.0,5.0,94,0.00,,,0.00,0,weatherlink.com 1.10,2013-02-16 13:38:00,
2013-02-16 05:53:00,47.4,46.0,30.20,SE,138,0.0,2.0,93,0.00,,,0.00,0,weatherlink.com 1.10,2013-02-16 13:53:00,
2013-02-16 06:08:00,47.0,45.0,30.19,SE,137,0.0,0.0,93,0.00,,,0.00,0,weatherlink.com 1.10,2013-02-16 14:08:00,
2013-02-16 06:23:00,46.7,45.0,30.19,SE,137,0.0,0.0,93,0.00,,,0.00,0,weatherlink.com 1.10,2013-02-16 14:23:00,
2013-02-16 06:38:00,46.6,45.0,30.19,SE,137,0.0,0.0,94,0.00,,,0.00,0,weatherlink.com 1.10,2013-02-16 14:38:00,
2013-02-16 06:53:00,46.0,44.0,30.19,SE,137,0.0,0.0,94,0.00,,,0.00,0,weatherlink.com 1.10,2013-02-16 14:53:00,
2013-02-16 07:08:00,46.4,45.0,30.19,ESE,107,0.0,0.0,94,0.00,,,0.00,9,weatherlink.com 1.10,2013-02-16 15:08:00,
2013-02-16 07:23:00,46.5,45.0,30.20,SE,140,0.0,0.0,94,0.00,,,0.00,23,weatherlink.com 1.10,2013-02-16 15:23:00,
2013-02-16 07:38:00,47.2,46.0,30.20,SE,140,0.0,0.0,94,0.00,,,0.00,42,weatherlink.com 1.10,2013-02-16 15:38:00,
2013-02-16 07:53:00,47.5,46.0,30.20,SE,141,0.0,0.0,93,0.00,,,0.00,91,weatherlink.com 1.10,2013-02-16 15:53:00,
2013-02-16 08:08:00,48.3,47.0,30.20,SE,141,0.0,0.0,94,0.00,,,0.00,192,weatherlink.com 1.10,2013-02-16 16:08:00,
2013-02-16 08:23:00,50.4,49.0,30.20,SE,137,0.0,2.0,93,0.00,,,0.00,221,weatherlink.com 1.10,2013-02-16 16:23:00,
2013-02-16 08:39:00,50.1,48.0,30.20,SSE,157,0.0,4.0,91,0.00,,,0.00,204,weatherlink.com 1.10,2013-02-16 16:39:00,
2013-02-16 08:54:00,51.3,49.0,30.19,SSE,161,2.0,2.0,90,0.00,,,0.00,221,weatherlink.com 1.10,2013-02-16 16:54:00,
2013-02-16 09:09:00,52.3,50.0,30.19,WSW,246,2.0,4.0,90,0.00,,,0.00,304,weatherlink.com 1.10,2013-02-16 17:09:00,
2013-02-16 09:24:00,57.1,50.0,30.19,NE,38,4.0,8.0,78,0.00,,,0.00,366,weatherlink.com 1.10,2013-02-16 17:24:00,
2013-02-16 09:39:00,58.0,50.0,30.19,NE,34,5.0,10.0,74,0.00,,,0.00,318,weatherlink.com 1.10,2013-02-16 17:39:00,
2013-02-16 09:54:00,58.1,50.0,30.19,NE,42,7.0,9.0,74,0.00,,,0.00,408,weatherlink.com 1.10,2013-02-16 17:54:00,
2013-02-16 10:09:00,58.9,49.0,30.18,NNE,22,10.0,12.0,70,0.00,,,0.00,512,weatherlink.com 1.10,2013-02-16 18:09:00,
2013-02-16 10:24:00,60.2,50.0,30.18,North,9,10.0,12.0,70,0.00,,,0.00,501,weatherlink.com 1.10,2013-02-16 18:24:00,
2013-02-16 10:39:00,61.8,51.0,30.18,NNW,342,1.0,10.0,68,0.00,,,0.00,478,weatherlink.com 1.10,2013-02-16 18:39:00,
2013-02-16 10:54:00,63.1,52.0,30.18,NW,324,4.0,8.0,67,0.00,,,0.00,471,weatherlink.com 1.10,2013-02-16 18:54:00,
2013-02-16 11:09:00,64.7,51.0,30.17,WNW,301,4.0,10.0,62,0.00,,,0.00,489,weatherlink.com 1.10,2013-02-16 19:09:00,
2013-02-16 11:24:00,61.3,51.0,30.16,NW,314,4.0,9.0,68,0.00,,,0.00,446,weatherlink.com 1.10,2013-02-16 19:24:00,
2013-02-16 11:39:00,62.2,53.0,30.16,WNW,294,2.0,8.0,71,0.00,,,0.00,613,weatherlink.com 1.10,2013-02-16 19:39:00,
2013-02-16 11:54:00,61.7,51.0,30.16,West,281,5.0,10.0,69,0.00,,,0.00,559,weatherlink.com 1.10,2013-02-16 19:54:00,
2013-02-16 12:09:00,62.9,53.0,30.15,NNW,336,7.0,11.0,70,0.00,,,0.00,724,weatherlink.com 1.10,2013-02-16 20:09:00,
2013-02-16 12:24:00,62.6,52.0,30.15,NW,304,5.0,8.0,68,0.00,,,0.00,703,weatherlink.com 1.10,2013-02-16 20:24:00,
2013-02-16 12:39:00,62.8,53.0,30.14,NNW,327,6.0,8.0,71,0.00,,,0.00,640,weatherlink.com 1.10,2013-02-16 20:39:00,
2013-02-16 12:54:00,60.7,53.0,30.14,NW,324,6.0,9.0,75,0.00,,,0.00,657,weatherlink.com 1.10,2013-02-16 20:54:00,
2013-02-16 13:10:00,60.4,52.0,30.13,NNW,330,1.0,9.0,75,0.00,,,0.00,631,weatherlink.com 1.10,2013-02-16 21:10:00,
2013-02-16 13:25:00,62.3,52.0,30.12,WNW,291,2.0,9.0,70,0.00,,,0.00,538,weatherlink.com 1.10,2013-02-16 21:25:00,
2013-02-16 13:40:00,62.1,51.0,30.11,NNW,339,2.0,7.0,67,0.00,,,0.00,610,weatherlink.com 1.10,2013-02-16 21:40:00,
2013-02-16 13:55:00,61.8,51.0,30.11,West,279,1.0,9.0,69,0.00,,,0.00,540,weatherlink.com 1.10,2013-02-16 21:55:00,
2013-02-16 14:10:00,61.9,54.0,30.10,NNW,341,0.0,9.0,74,0.00,,,0.00,622,weatherlink.com 1.10,2013-02-16 22:10:00,
2013-02-16 14:25:00,61.9,52.0,30.10,NW,305,5.0,8.0,71,0.00,,,0.00,575,weatherlink.com 1.10,2013-02-16 22:25:00,
2013-02-16 14:40:00,59.1,52.0,30.10,WNW,288,8.0,12.0,76,0.00,,,0.00,427,weatherlink.com 1.10,2013-02-16 22:40:00,
2013-02-16 14:55:00,58.3,53.0,30.10,WSW,248,6.0,12.0,81,0.00,,,0.00,490,weatherlink.com 1.10,2013-02-16 22:55:00,
2013-02-16 15:10:00,57.8,52.0,30.10,West,277,8.0,10.0,80,0.00,,,0.00,446,weatherlink.com 1.10,2013-02-16 23:10:00,
2013-02-16 15:25:00,56.6,51.0,30.10,WNW,286,6.0,12.0,82,0.00,,,0.00,410,weatherlink.com 1.10,2013-02-16 23:25:00,
2013-02-16 15:40:00,54.1,50.0,30.11,WSW,257,9.0,16.0,86,0.00,,,0.00,578,weatherlink.com 1.10,2013-02-16 23:40:00,
2013-02-16 15:55:00,52.5,50.0,30.11,WNW,299,6.0,12.0,90,0.00,,,0.00,165,weatherlink.com 1.10,2013-02-16 23:55:00,
2013-02-16 16:10:00,52.9,50.0,30.10,NW,308,5.0,9.0,91,0.00,,,0.00,346,weatherlink.com 1.10,2013-02-17 00:10:00,
2013-02-16 16:25:00,54.9,52.0,30.10,West,281,2.0,6.0,89,0.00,,,0.00,236,weatherlink.com 1.10,2013-02-17 00:25:00,
2013-02-16 16:40:00,53.4,51.0,30.10,WNW,299,1.0,8.0,90,0.00,,,0.00,183,weatherlink.com 1.10,2013-02-17 00:40:00,
2013-02-16 16:55:00,52.9,50.0,30.10,WNW,294,6.0,10.0,89,0.00,,,0.00,121,weatherlink.com 1.10,2013-02-17 00:55:00,
2013-02-16 17:10:00,52.2,49.0,30.10,WNW,284,6.0,10.0,90,0.00,,,0.00,54,weatherlink.com 1.10,2013-02-17 01:10:00,
2013-02-16 17:25:00,51.4,49.0,30.09,WNW,292,6.0,10.0,92,0.00,,,0.00,23,weatherlink.com 1.10,2013-02-17 01:25:00,
2013-02-16 17:40:00,51.3,49.0,30.09,West,275,4.0,9.0,93,0.00,,,0.00,14,weatherlink.com 1.10,2013-02-17 01:40:00,
2013-02-16 17:55:00,51.2,49.0,30.09,WNW,295,5.0,8.0,93,0.00,,,0.00,0,weatherlink.com 1.10,2013-02-17 01:55:00,
2013-02-16 18:10:00,51.0,49.0,30.09,West,275,4.0,8.0,94,0.00,,,0.00,0,weatherlink.com 1.10,2013-02-17 02:10:00,
2013-02-16 18:25:00,50.9,49.0,30.09,WSW,242,4.0,9.0,94,0.00,,,0.00,0,weatherlink.com 1.10,2013-02-17 02:25:00,
2013-02-16 18:40:00,50.8,50.0,30.09,WNW,298,0.0,7.0,95,0.00,,,0.00,0,weatherlink.com 1.10,2013-02-17 02:40:00,
2013-02-16 18:55:00,50.7,49.0,30.09,NW,309,3.0,8.0,95,0.00,,,0.00,0,weatherlink.com 1.10,2013-02-17 02:55:00,
2013-02-16 19:10:00,50.8,50.0,30.09,NNW,327,2.0,11.0,95,0.00,,,0.00,0,weatherlink.com 1.10,2013-02-17 03:10:00,
2013-02-16 19:25:00,51.0,50.0,30.09,WSW,248,10.0,14.0,95,0.00,,,0.00,0,weatherlink.com 1.10,2013-02-17 03:25:00,
2013-02-16 19:40:00,50.9,50.0,30.09,West,274,5.0,12.0,95,0.00,,,0.00,0,weatherlink.com 1.10,2013-02-17 03:40:00,
2013-02-16 19:55:00,50.8,50.0,30.10,WSW,246,6.0,16.0,95,0.00,,,0.00,0,weatherlink.com 1.10,2013-02-17 03:55:00,
2013-02-16 20:10:00,50.5,49.0,30.10,West,259,5.0,16.0,95,0.00,,,0.00,0,weatherlink.com 1.10,2013-02-17 04:10:00,
2013-02-16 20:25:00,50.5,49.0,30.10,NW,305,0.0,18.0,95,0.00,,,0.00,0,weatherlink.com 1.10,2013-02-17 04:25:00,
2013-02-16 20:40:00,50.3,49.0,30.09,NW,305,8.0,16.0,95,0.00,,,0.00,0,weatherlink.com 1.10,2013-02-17 04:40:00,
2013-02-16 20:55:00,50.4,49.0,30.09,West,268,11.0,13.0,95,0.00,,,0.00,0,weatherlink.com 1.10,2013-02-17 04:55:00,
2013-02-16 21:10:00,50.3,49.0,30.09,West,260,6.0,12.0,96,0.00,,,0.00,0,weatherlink.com 1.10,2013-02-17 05:10:00,
2013-02-16 21:25:00,50.3,49.0,30.09,WNW,284,7.0,11.0,96,0.00,,,0.00,0,weatherlink.com 1.10,2013-02-17 05:25:00,
2013-02-16 21:40:00,50.3,49.0,30.10,West,271,4.0,12.0,96,0.00,,,0.00,0,weatherlink.com 1.10,2013-02-17 05:40:00,
2013-02-16 21:55:00,50.3,49.0,30.10,West,271,7.0,11.0,96,0.00,,,0.00,0,weatherlink.com 1.10,2013-02-17 05:55:00,
2013-02-16 22:10:00,50.3,49.0,30.09,North,355,2.0,11.0,96,0.00,,,0.00,0,weatherlink.com 1.10,2013-02-17 06:10:00,
2013-02-16 22:25:00,50.4,49.0,30.09,NNW,342,3.0,11.0,96,0.00,,,0.00,0,weatherlink.com 1.10,2013-02-17 06:25:00,
2013-02-16 22:40:00,50.5,49.0,30.09,West,262,10.0,11.0,96,0.00,,,0.00,0,weatherlink.com 1.10,2013-02-17 06:40:00,
2013-02-16 22:55:00,50.4,49.0,30.09,West,263,7.0,9.0,96,0.00,,,0.00,0,weatherlink.com 1.10,2013-02-17 06:55:00,
2013-02-16 23:10:00,50.5,49.0,30.08,West,270,4.0,12.0,96,0.00,,,0.00,0,weatherlink.com 1.10,2013-02-17 07:10:00,
2013-02-16 23:25:00,50.3,49.0,30.08,WNW,298,11.0,14.0,96,0.00,,,0.00,0,weatherlink.com 1.10,2013-02-17 07:25:00,
2013-02-16 23:40:00,50.6,50.0,30.08,NW,321,4.0,11.0,96,0.00,,,0.00,0,weatherlink.com 1.10,2013-02-17 07:40:00,
2013-02-16 23:55:00,50.5,49.0,30.07,NNW,327,5.0,14.0,96,0.00,,,0.00,0,weatherlink.com 1.10,2013-02-17 07:55:00,